Regional Weather Roundup
Issued by NWS

Home | Current Version | Previous Version | Text Only | Print | Product List | Glossary On
Versions: 1 2 3 4 5 6 7 8 9 10 11 12 13 14 15 16 17 18 19 20 21 22 23 24 25 26 27 28 29 30 31 32 33 34 35 36 37 38 39 40 41 42 43 44 45 46 47 48 49 50
890
ASUS43 KBIS 181202
RWRND

NORTH DAKOTA REGIONAL WEATHER ROUNDUP
NATIONAL WEATHER SERVICE BISMARCK ND
700 AM CDT WED OCT 18 2017

NOTE: "FAIR" INDICATES FEW OR NO CLOUDS BELOW 12,000 FEET WITH NO
SIGNIFICANT WEATHER AND/OR OBSTRUCTIONS TO VISIBILITY.


NDZ001>003-009>011-017-181300-
NORTHWEST NORTH DAKOTA

CITY           SKY/WX    TMP DP  RH WIND       PRES   REMARKS
WILLISTON      MOCLDY    43  26  51 W9        29.88R
6HR MIN TEMP:  43; 6HR MAX TEMP:  69; 6HR PCP: TRACE;

MINOT          CLOUDY    50  30  46 W23G33    29.76R
MINOT AFB      CLOUDY    47  29  49 W21G29    29.74R
$$

NDZ018>021-031>035-040>046-181300-
SOUTHWEST NORTH DAKOTA

CITY           SKY/WX    TMP DP  RH WIND       PRES   REMARKS
BISMARCK       CLOUDY    56  31  38 NW16      29.82R
6HR MIN TEMP:  51; 6HR MAX TEMP:  63;

DICKINSON      MOCLDY    47  26  44 NW13      29.88R
GARRISON         N/A     47  31  53 NW24G35   29.81R
6HR MIN TEMP:  47; 6HR MAX TEMP:  63;

HETTINGER ARPT CLOUDY    48  26  42 NW15      29.91R
$$

NDZ004>008-012>016-024-026-027-054-181300-
NORTHEAST NORTH DAKOTA

CITY           SKY/WX    TMP DP  RH WIND       PRES   REMARKS
GRAND FORKS    CLOUDY    57  36  45 SW8       29.59R
GRND FRKS AFB  CLOUDY    60  31  34 W10       29.59R
DEVILS LAKE    MOCLDY    54  36  50 W29G37    29.67R
$$

NDZ022-023-025-028>030-036>039-047>053-181300-
SOUTHEAST NORTH DAKOTA

CITY           SKY/WX    TMP DP  RH WIND       PRES   REMARKS
FARGO          CLOUDY    49  41  74 SW7       29.66R
6HR MIN TEMP:  49; 6HR MAX TEMP:  58;

JAMESTOWN      MOCLDY    56  32  40 NW14      29.70R
$$





USA.gov is the U.S. government's official web portal to all federal, state and local government web resources and services.